Content
SEND FEEDBACK

Daily
Averages
Monthly
Summary
United States of America

BAYSIDE, NEW YORK


Home > North America > United States > New York
Elevation: 11 feet     Latitude: 40 46N     Longitude: 073 54W

WEATHER
 
SELECT A DAY
Number of Records: 195,861;   Date Range: 1/1/95 - 12/27/14
 
SHARE

PRINT THIS DATA

[ ← Previous Day ]
WEATHER ALMANAC - JULY 8, 2013
[ Next Day → ]
[ °C ]   °F
Weather ElementAverageHighLow
Temperature83.2 °F90 °F (4:51 pm)75.9 °F (4:51 am)
Dewpoint64.1 °F68 °F (8:36 pm)62.1 °F (11:51 am)
Humidity53.5 %69 % (4:51 am)39 % (4:51 pm)
Barometer30.00 in30.04 in (11:51 pm)29.95 in (6:28 pm)
Wind Speed10.1 mph16.1 mph (7:51 pm)
Wind Gust27.6 mph (8:20 pm)
Weather ElementAverage
Visibility10 mi
Wind DirectionWSW (244.4 °)

Weather ElementTotal
Precipitation---
Cooling Degree Days18 (Base 65)
Growing Degree Days33 (Base 50)
Averaged from 27 records on July 8, 2013
WEATHER CONDITIONS BREAKOUT
WIND DIRECTION BREAKOUT
WEATHER BY HOUR - JULY 8, 2013
[ °C ]   °F
Local TimeTemperatureDewpointHumidityBarometerVisibilityWind DirectionWind SpeedGust SpeedPrecipitationEventsConditions
1:51 AM80.1 °F63.0 °F56 %29.99 in10.0 miWest (260°)13.8 mphMostly Cloudy
2:51 AM78.1 °F64.0 °F62 %29.97 in10.0 miWest (260°)8.1 mphMostly Cloudy
3:51 AM77.0 °F64.9 °F66 %29.97 in10.0 miWSW (250°)10.4 mphMostly Cloudy
4:51 AM75.9 °F64.9 °F69 %29.99 in10.0 miWest (260°)10.4 mphMostly Cloudy
5:51 AM75.9 °F64.9 °F69 %30.00 in10.0 miWest (260°)9.2 mphMostly Cloudy
6:51 AM75.9 °F64.9 °F69 %30.02 in10.0 miWSW (240°)6.9 mphMostly Cloudy
7:51 AM77.0 °F66.0 °F69 %30.02 in10.0 miWest (280°)8.1 mphMostly Cloudy
8:51 AM79.0 °F66.0 °F64 %30.02 in10.0 miNW (310°)10.4 mphMostly Cloudy
9:51 AM81.0 °F66.0 °F60 %30.01 in10.0 miNW (320°)5.8 mphScattered Clouds
10:51 AM84.9 °F64.0 °F49 %30.02 in10.0 miWest (270°)6.9 mphScattered Clouds
11:51 AM87.1 °F62.1 °F43 %30.02 in10.0 miWest (260°)11.5 mphScattered Clouds
12:51 PM87.1 °F63.0 °F44 %30.01 in10.0 miWest (260°)11.5 mphMostly Cloudy
1:51 PM88.0 °F62.1 °F42 %30.00 in10.0 miWSW (250°)11.5 mphMostly Cloudy
2:51 PM89.1 °F63.0 °F42 %29.99 in10.0 miWNW (290°)8.1 mphScattered Clouds
3:51 PM89.1 °F62.1 °F40 %29.98 in10.0 miWSW (250°)8.1 mphScattered Clouds
4:51 PM90.0 °F62.1 °F39 %29.97 in10.0 miSSW (210°)11.5 mphScattered Clouds
5:51 PM88.0 °F62.1 °F42 %29.96 in10.0 miSW (220°)13.8 mphMostly Cloudy
6:10 PM87.8 °F62.6 °F43 %29.96 in10.0 miSW (220°)11.5 mphThunderstormThunderstorm
6:28 PM87.8 °F62.6 °F43 %29.95 in10.0 miSSW (210°)12.7 mph19.6 mphMostly Cloudy
6:51 PM88.0 °F64.0 °F45 %29.96 in10.0 miSW (220°)12.7 mphMostly Cloudy
7:51 PM84.9 °F66.9 °F55 %29.98 in10.0 miSSW (210°)16.1 mph21.9 mphMostly Cloudy
8:20 PM82.4 °F66.2 °F58 %29.99 in10.0 miWNW (290°)12.7 mph27.6 mphThunderstormThunderstorm
8:36 PM78.8 °F68.0 °F69 %30.00 in9.0 miVariable3.5 mphThunderstormThunderstorm
8:51 PM84.9 °F64.0 °F49 %30.01 in10.0 miWest (260°)10.4 mphScattered Clouds
9:51 PM84.0 °F64.9 °F53 %30.03 in10.0 miWest (260°)8.1 mphScattered Clouds
10:51 PM82.9 °F63.0 °F51 %30.03 in10.0 miSW (230°)10.4 mphScattered Clouds
11:51 PM82.0 °F64.0 °F54 %30.04 in10.0 miWSW (250°)8.1 mphMostly Cloudy
Hourly data recorded from KLGA, located miles away from Bayside, New York







STORIES FROM OUR PARTNERS